STARLINK-37597, 69356

Orbit data source: Space-Track

STARLINK-37597, 69356 is a payload satellite owned by SpaceX/Seattle (US) in LEO that was launched on Thu, 04 Jun 2026 UTC via an FALCON 9 launch vehicle from the Air Force Eastern Test Range (AFETR). Payload-class satellites include a variety of spacecraft equipped with specific instruments for various scientific and technological missions. These include communications satellites like Starlink; space stations such as the ISS; scientific satellites like the Hubble; Earth observation satellites from companies like Planet Labs, Umbra, and HawkEye 360; GPS; miniature CubeSats for education and research; and military/defense satellites.

Loading next visibility...
Identifier
69356, 2026-123D
Orbit
LEO
Country
Flag of USUS
Related business
Manufacturer
SpaceX/Seattle
Mission
Operational spacecraft
Bus & Motor
STARLINK V2MO, Unknown motor
Mass
575 kg wet, ~530 kg dry
Launch date (UTC)
2026-06-04 (2 months ago)
Launch vehicle
FALCON 9
Launch site
Air Force Eastern Test Range (AFETR)
Object type
Payload
Rocket body
Debris
Shape & HBR
BOX + PAN, 17.7 m
Radar Cross Section
Large (>1 m²)

Expand to show TLE details & history
Last TLE update: 1 day ago

TLE from 1 day ago
0 STARLINK-37597
1 69356U 26123D   26206.91296162  .00174592  00000-0  11151-2 0  9994
2 69356  53.1572  49.0544 0001287 339.3387  20.7581 15.75335250  8146
Epoch: 2026-07-25T21:54Z
TLE epoch observation values (Epoch: 2026-07-25T21:54:39.883Z)
Latitude
-0.00005°
Longitude
136.76975°
Altitude
343.785 km
Speed
7.704 km/s
True Right ascension
03h 16m 13s
True Declination
0° 00' 00"
Sunlit
Object was in daylight at epoch
Visualization orbit readout
Latitude
Unknown
Longitude
Unknown
Altitude
Unknown
Speed
Unknown
Apparent Right ascension
Unknown
Apparent Declination
Unknown
Sunlit
N/A
Visualization observer readout
Local Sidereal Time
11:35:23
Azimuth
Unknown
Elevation
Unknown
Doppler factor
Unknown
Orbital elements
Apogee altitude
344.804 km
Perigee altitude
343.074 km
Semi-major axis
6,722.076 km
Eccentricity
0.00013
Inclination
53.1572°
RAAN
49.0544°
Arg. of periapsis
339.3387°
True anomaly
20.76333°
Mean anomaly
20.7581°
Eccentric anomaly
20.76071°
Mean motion
3.93811 °/min
Orbital period
91.41 mins
BSTAR
0.0011151
Loading maneuver chart data...
Computing Atmospheric mass density...
Loading historical data...
Loading historical data...
Loading historical data...
Loading historical data...
Loading historical data...
Loading historical data...
Loading historical data...

Documentation

Showing up to 5 results
|